Starlink 35220

operational
NORAD ID: 65661 Int'l Des: 2025-211 Owner: SPXS Country: US Constellation: starlink
NOTLE

关于 Starlink 35220

正在加载描述...

实时位置

正在加载3D地球...

即将过境

高度历史

Altitude vs Time

uPlot chart will show altitude changes over time

两行轨道根数

1 65661U 25211K 25343.11738131 .00004035 00000-0 28368-3 0 9999
2 65661 97.6036 24.7878 0001348 95.4278 264.7102 15.05651409 13411
Epoch: Dec 9, 2025 • Age: 7 hours

当前状态

高度 562.0 km
速度 7.59 km/s
星下点 81.41°N, 101.57°E
发射日期 Sep 19, 2025
运行时间 0.2 years
类型 internet

技术详情

分类 Payload
质量 575.00 kg
干质量 530.00 kg
总质量 575.00 kg
长度 0.30 m
直径 4.10 m
跨度 29.00 m
形状 Box + pan
制造商 SPXS
平台类型 Starlink V2MO
阶段状态 In Orbit
所有者/国家 SPXS/US

大型星座

Loading constellations...